NOAA 16 DEB

Satellite information

Favourite Embed

Satellite Type and Status

DEBRISIN ORBIT

Key statistics

Satellite NOAA 16 DEB at a glance.

Uptime

9215

Days in orbit

Revolutions

≈ 14.3

Per day

Orbit

SSO

Sun Synchronous Orbit

Inclination

98.6

Latest

Satellite identification and parameters

Extended collection of information and parameters for NOAA 16 DEB.

Object identification

Identified? True

Debris? True

Object name: NOAA 16 DEB

International designator: 2000-055KR

Object number (NORAD): 41412

Object ID (CCSDS): 41412

Country: UNITED STATES OF AMERICA (US)

Current information (Y/N): Y

RCS size: SMALL

Orbital parameters

Period: 100.973 minutes

Inclination: 98.6307 deg

SMA: 7182.872 km

Apoapsis: 822.518 km

Periapsis: 786.956 km

RAAN: 4.7245 deg

Eccentricy: 0.00247545

Argument of periapsis: 283.2638 deg

Mean anomaly: 76.5781 deg

Mean motion: 14.2611838 rev/day

Mean motion (dot): 0.00009161 rev/day2

B* drag term: 0.0038318126 1/REarth

Two-line elements (TLE)

Creation date: Dec. 11, 2025, 10:54 a.m.

Reference frame: TEME

Reference center: EARTH

Epoch: Dec. 11, 2025, 7:14 a.m. UTC

TLE line 0: 0 NOAA 16 DEB

TLE line 1: 1 41412U 00055KR 25345.30196098 .00009161 00000-0 38318-2 0 9999

TLE line 2: 2 41412 98.6307 4.7245 0024755 283.2638 76.5781 14.26118380505462

Live tracking on map

Real-time ground track for satellite NOAA 16 DEB.

In-orbit conjunctions

A list of the most updated potential collisions computed for object NOAA 16 DEB.

Target Orbit TCA Probability of collision Miss distance Type
GEOS 3 SSO 2025-11-03 09:15:27 0.0004284043 783.0 (m) PAYLOAD
METEOR 2-6 LEO 2024-07-23 07:12:14 0.0001228524 124.0 (m) PAYLOAD

Associated space launch

The NOAA K, L and M POES satellites begin the fifth generation of improved environmental monitoring in support of NOAA missions. The instrument payload has significant improvements and additions/deletions. The instrument changes have effected the spacecraft subsystems and data formats.

NOAA 16 DEB was lifted into orbit during the mission ‘Titan II SLV | NOAA 16’, on board a Titan II SLV space rocket.

The launch took place on Sept. 21, 2000, 10:22 a.m. from Space Launch Complex 4W.

For more information about the launch, click the button.

Launch to space Titan II SLV | NOAA 16
Titan II SLV | NOAA 16

Agency: N/A

Status: Launch Successful

Launch date: Sept. 21, 2000, 10:22 a.m. UTC

Rocket: Titan II SLV

Launch pad: Space Launch Complex 4W

Location: Vandenberg SFB, CA, USA

...

Latest news about this satellite

There are no fresh news available about this satellite. Check back as we update our databases every day.


Newsletter sign-up

Weekly statistics, charts and insights to help you stay on top of the space industry.